TRA64R EHRD-LEMG

Flight info

Callsign TRA64R
Flight time 1h 40m
Altitude 35000
Route WOODY N872 CIV DCT KOVIN DCT DUCRA DCT RESMI DCT DEKOD DCT DISAK DCT ARKIP DCT ARNAV DCT LMG DCT UVELI DCT OSMOB DCT ARVID/N0450F350 DCT PPN DCT NOLSA DCT ALEPO DCT VASUM N10 BAN DCT GOTOR DCT KAMPO DCT MONTO DCT CRISA DCT VULPE
Aircraft A321/M-SDE3FGHIRWY/LB1

Departure

Time 2026-05-07 07:34
Airport Rotterdam The Hague Airport (EHRD)

Arrival

Time 2026-05-07 09:14
Airport Málaga-Costa del Sol Airport (LEMG)
Time Latitude Longitude Altitude Speed Heading
2026-05-07 07:03 51.95016 4.43507 1 ft 0 kts 326°
2026-05-07 07:30 51.95018 4.43504 1 ft 2 kts 326°
2026-05-07 07:31 51.95054 4.43499 1 ft 9 kts 33°
2026-05-07 07:31 51.95116 4.43559 1 ft 13 kts 346°
2026-05-07 07:31 51.95208 4.43471 1 ft 11 kts 327°
2026-05-07 07:31 51.95229 4.43376 1 ft 12 kts 249°
2026-05-07 07:32 51.95178 4.43242 1 ft 16 kts 236°
2026-05-07 07:32 51.95124 4.43078 1 ft 8 kts 245°
2026-05-07 07:32 51.95115 4.42968 1 ft 12 kts 289°
2026-05-07 07:32 51.95186 4.42869 1 ft 16 kts 325°
2026-05-07 07:33 51.95250 4.42930 2 ft 13 kts 59°
2026-05-07 07:33 51.95320 4.43100 2 ft 34 kts 57°
2026-05-07 07:33 51.95612 4.43828 1 ft 116 kts 57°
2026-05-07 07:33 51.96169 4.45200 160 ft 160 kts 57°
2026-05-07 07:34 51.96731 4.46693 1108 ft 154 kts 57°
2026-05-07 07:34 51.97288 4.48220 1764 ft 162 kts 58°
2026-05-07 07:34 51.97903 4.49895 1950 ft 182 kts 58°
2026-05-07 07:34 51.98590 4.51760 2128 ft 204 kts 58°
2026-05-07 07:35 51.99354 4.53854 2307 ft 228 kts 61°
2026-05-07 07:35 52.00084 4.56286 2663 ft 247 kts 64°
2026-05-07 07:35 52.00677 4.58926 3377 ft 254 kts 82°
2026-05-07 07:35 52.00581 4.61777 4123 ft 260 kts 104°
2026-05-07 07:36 51.99717 4.64369 4910 ft 266 kts 131°
2026-05-07 07:36 51.98170 4.66043 5634 ft 273 kts 161°
2026-05-07 07:36 51.96277 4.66317 6361 ft 277 kts 190°
2026-05-07 07:36 51.94428 4.65417 7061 ft 279 kts 198°
2026-05-07 07:37 51.92588 4.64403 7778 ft 280 kts 199°
2026-05-07 07:37 51.90759 4.63395 8442 ft 282 kts 199°
2026-05-07 07:37 51.88883 4.62373 9144 ft 285 kts 199°
2026-05-07 07:37 51.86991 4.61353 9815 ft 287 kts 199°
2026-05-07 07:38 51.85071 4.60320 10352 ft 294 kts 199°
2026-05-07 07:38 51.83059 4.59235 10467 ft 315 kts 199°
2026-05-07 07:38 51.80910 4.58080 10595 ft 335 kts 199°
2026-05-07 07:38 51.78683 4.56886 10925 ft 346 kts 199°
2026-05-07 07:39 51.76385 4.55659 11487 ft 350 kts 199°
2026-05-07 07:39 51.74063 4.54417 12087 ft 353 kts 200°
2026-05-07 07:39 51.71724 4.53167 12687 ft 355 kts 199°
2026-05-07 07:39 51.69369 4.51914 13297 ft 358 kts 199°
2026-05-07 07:40 51.66990 4.50650 13888 ft 361 kts 199°
2026-05-07 07:40 51.64589 4.49375 14420 ft 364 kts 199°
2026-05-07 07:40 51.62176 4.48094 14941 ft 367 kts 200°
2026-05-07 07:40 51.59736 4.46795 15463 ft 369 kts 199°
2026-05-07 07:41 51.57319 4.45508 15967 ft 372 kts 199°
2026-05-07 07:41 51.54851 4.44198 16475 ft 375 kts 199°
2026-05-07 07:41 51.52365 4.42876 16977 ft 378 kts 199°
2026-05-07 07:41 51.49861 4.41550 17479 ft 380 kts 199°
2026-05-07 07:42 51.47335 4.40219 17965 ft 383 kts 199°
2026-05-07 07:42 51.44789 4.38879 18433 ft 386 kts 199°
2026-05-07 07:42 51.42229 4.37530 18851 ft 388 kts 199°
2026-05-07 07:42 51.39696 4.36004 19265 ft 389 kts 206°
2026-05-07 07:43 51.37242 4.34131 19691 ft 391 kts 207°
2026-05-07 07:43 51.34778 4.32252 20108 ft 393 kts 207°
2026-05-07 07:43 51.32327 4.30384 20544 ft 396 kts 207°
2026-05-07 07:43 51.29835 4.28488 20947 ft 398 kts 207°
2026-05-07 07:44 51.27321 4.26579 21363 ft 400 kts 207°
2026-05-07 07:44 51.24796 4.24661 21765 ft 402 kts 207°
2026-05-07 07:44 51.22257 4.22737 22157 ft 405 kts 207°
2026-05-07 07:44 51.19701 4.20804 22545 ft 407 kts 206°
2026-05-07 07:45 51.17132 4.18870 22933 ft 409 kts 206°
2026-05-07 07:45 51.14465 4.17259 23295 ft 413 kts 200°
2026-05-07 07:45 51.11738 4.15767 23666 ft 415 kts 200°
2026-05-07 07:45 51.08996 4.14266 23984 ft 417 kts 200°
2026-05-07 07:46 51.06241 4.12759 24299 ft 419 kts 200°
2026-05-07 07:46 51.03518 4.11272 24613 ft 421 kts 200°
2026-05-07 07:46 51.00737 4.09758 24914 ft 423 kts 200°
2026-05-07 07:46 50.97947 4.08237 25228 ft 424 kts 200°
2026-05-07 07:47 50.95147 4.06703 25535 ft 426 kts 200°
2026-05-07 07:47 50.92336 4.05165 25838 ft 428 kts 200°
2026-05-07 07:47 50.89505 4.03622 26134 ft 430 kts 200°
2026-05-07 07:47 50.86670 4.02052 26439 ft 432 kts 201°
2026-05-07 07:48 50.84804 4.00940 26623 ft 433 kts 202°
2026-05-07 07:48 50.82004 3.99165 26918 ft 434 kts 204°
2026-05-07 07:48 50.79213 3.97322 27193 ft 436 kts 204°
2026-05-07 07:48 50.75495 3.94842 27544 ft 439 kts 204°
2026-05-07 07:49 50.72666 3.92979 27803 ft 441 kts 204°
2026-05-07 07:49 50.69818 3.91134 28060 ft 443 kts 203°
2026-05-07 07:49 50.67884 3.89897 28245 ft 444 kts 203°
2026-05-07 07:49 50.65040 3.88095 28500 ft 446 kts 203°
2026-05-07 07:50 50.62151 3.86276 28757 ft 448 kts 202°
2026-05-07 07:50 50.59246 3.84448 29017 ft 449 kts 202°
2026-05-07 07:50 50.56329 3.82603 29256 ft 451 kts 203°
2026-05-07 07:50 50.53420 3.80690 29499 ft 453 kts 204°
2026-05-07 07:51 50.50563 3.78738 29846 ft 452 kts 205°
2026-05-07 07:51 50.47687 3.76739 30196 ft 451 kts 205°
2026-05-07 07:51 50.44816 3.74737 30486 ft 450 kts 205°
2026-05-07 07:51 50.41945 3.72748 30809 ft 450 kts 205°
2026-05-07 07:52 50.39075 3.70781 31124 ft 449 kts 204°
2026-05-07 07:52 50.36207 3.68834 31426 ft 448 kts 204°
2026-05-07 07:52 50.33349 3.66901 31755 ft 447 kts 204°
2026-05-07 07:52 50.30492 3.64974 32071 ft 446 kts 204°
2026-05-07 07:53 50.27643 3.63053 32370 ft 445 kts 204°
2026-05-07 07:53 50.24844 3.61169 32650 ft 444 kts 204°
2026-05-07 07:53 50.22000 3.59256 32941 ft 444 kts 204°
2026-05-07 07:53 50.19157 3.57345 33048 ft 444 kts 204°
2026-05-07 07:54 50.16316 3.55436 33055 ft 443 kts 204°
2026-05-07 07:54 50.10654 3.51642 33057 ft 444 kts 204°
2026-05-07 07:55 50.04360 3.47430 33062 ft 444 kts 204°
2026-05-07 07:55 49.81625 3.32325 33044 ft 445 kts 204°
2026-05-07 07:55 49.70223 3.24802 32902 ft 444 kts 204°
2026-05-07 07:56 49.59002 3.17437 33041 ft 441 kts 204°
2026-05-07 07:56 49.37418 2.99256 33169 ft 441 kts 214°
2026-05-07 07:57 49.16813 2.78490 33018 ft 449 kts 214°
2026-05-07 07:57 48.96108 2.57831 32881 ft 444 kts 214°
2026-05-07 07:57 48.92376 2.54123 33069 ft 440 kts 214°
2026-05-07 07:58 48.89084 2.50863 33061 ft 442 kts 214°
2026-05-07 07:58 48.68439 2.30514 32967 ft 443 kts 214°
2026-05-07 07:58 48.58025 2.20508 32865 ft 444 kts 207°
2026-05-07 07:59 48.46150 2.15774 32973 ft 444 kts 193°
2026-05-07 07:59 48.21784 2.11439 33185 ft 443 kts 172°
2026-05-07 07:59 48.17344 2.12419 33031 ft 448 kts 173°
2026-05-07 08:00 48.14244 2.12915 33051 ft 448 kts 180°
2026-05-07 08:00 48.00685 2.10699 33010 ft 447 kts 188°
2026-05-07 08:01 47.76026 2.06033 33060 ft 441 kts 189°
2026-05-07 08:01 47.52203 1.97140 33149 ft 443 kts 203°
2026-05-07 08:02 47.29259 1.83952 33109 ft 444 kts 203°
2026-05-07 08:02 47.06381 1.70963 33010 ft 445 kts 203°
2026-05-07 08:03 46.83650 1.58253 32935 ft 444 kts 203°
2026-05-07 08:03 46.60730 1.45561 32900 ft 440 kts 202°
2026-05-07 08:04 46.49065 1.39139 33038 ft 440 kts 203°
2026-05-07 08:04 46.43341 1.36001 33028 ft 439 kts 203°
2026-05-07 08:05 46.37626 1.32868 33025 ft 439 kts 203°
2026-05-07 08:05 46.31925 1.29753 33022 ft 437 kts 203°
2026-05-07 08:06 46.26266 1.26666 33021 ft 437 kts 203°
2026-05-07 08:06 46.20571 1.23565 33020 ft 437 kts 203°
2026-05-07 08:07 46.14882 1.20478 33004 ft 436 kts 203°
2026-05-07 08:07 46.09200 1.17405 33019 ft 435 kts 203°
2026-05-07 08:08 46.03524 1.14340 33024 ft 435 kts 202°
2026-05-07 08:08 45.97890 1.11314 33024 ft 435 kts 202°
2026-05-07 08:09 45.92214 1.08263 33018 ft 433 kts 203°
2026-05-07 08:09 45.86574 1.05233 33034 ft 432 kts 203°
2026-05-07 08:10 45.81124 1.01692 33029 ft 429 kts 215°
2026-05-07 08:10 45.76461 0.96410 33006 ft 427 kts 221°
2026-05-07 08:11 45.71952 0.90985 33014 ft 426 kts 221°
2026-05-07 08:11 45.67394 0.85550 33015 ft 426 kts 221°
2026-05-07 08:12 45.62828 0.80107 33011 ft 426 kts 221°
2026-05-07 08:12 45.58307 0.74729 33010 ft 426 kts 221°
2026-05-07 08:13 45.53747 0.69319 33013 ft 425 kts 221°
2026-05-07 08:13 45.49185 0.63915 33018 ft 425 kts 221°
2026-05-07 08:14 45.44627 0.58528 33024 ft 425 kts 221°
2026-05-07 08:14 45.40093 0.53185 33023 ft 425 kts 221°
2026-05-07 08:15 45.35530 0.47823 33027 ft 425 kts 221°
2026-05-07 08:15 45.30977 0.42465 33027 ft 424 kts 221°
2026-05-07 08:15 45.28695 0.39787 33241 ft 425 kts 221°
2026-05-07 08:16 45.26418 0.37122 33568 ft 423 kts 221°
2026-05-07 08:16 45.24141 0.34467 33902 ft 422 kts 221°
2026-05-07 08:16 45.21897 0.31854 34187 ft 421 kts 221°
2026-05-07 08:16 45.19635 0.29218 34425 ft 421 kts 221°
2026-05-07 08:17 45.17369 0.26575 34645 ft 420 kts 221°
2026-05-07 08:17 45.15110 0.23939 34891 ft 419 kts 221°
2026-05-07 08:17 45.12854 0.21310 35006 ft 419 kts 221°
2026-05-07 08:18 45.08361 0.16074 35030 ft 417 kts 221°
2026-05-07 08:18 45.03878 0.10869 35033 ft 416 kts 221°
2026-05-07 08:19 44.99415 0.05722 35022 ft 416 kts 221°
2026-05-07 08:19 44.94943 0.00569 35036 ft 414 kts 221°
2026-05-07 08:20 44.90467 -0.04589 35038 ft 414 kts 221°
2026-05-07 08:20 44.86030 -0.09693 35030 ft 413 kts 221°
2026-05-07 08:21 44.81568 -0.14816 35032 ft 413 kts 221°
2026-05-07 08:21 44.77098 -0.19924 35034 ft 413 kts 220°
2026-05-07 08:22 44.72627 -0.25029 35033 ft 413 kts 220°
2026-05-07 08:22 44.68185 -0.30099 35032 ft 413 kts 220°
2026-05-07 08:23 44.63534 -0.34853 35027 ft 416 kts 210°
2026-05-07 08:23 44.58410 -0.38614 35022 ft 416 kts 210°
2026-05-07 08:24 44.53276 -0.42386 35025 ft 416 kts 210°
2026-05-07 08:24 44.48143 -0.46155 35029 ft 415 kts 210°
2026-05-07 08:25 44.43048 -0.49892 35032 ft 415 kts 210°
2026-05-07 08:25 44.37921 -0.53641 35011 ft 415 kts 210°
2026-05-07 08:26 44.30239 -0.59246 35021 ft 414 kts 210°
2026-05-07 08:26 44.25126 -0.62967 35032 ft 414 kts 210°
2026-05-07 08:27 44.20048 -0.66657 35016 ft 414 kts 210°
2026-05-07 08:27 44.14931 -0.70364 35024 ft 414 kts 210°
2026-05-07 08:28 44.09810 -0.74062 35018 ft 414 kts 210°
2026-05-07 08:28 44.04689 -0.77758 35028 ft 414 kts 210°
2026-05-07 08:29 43.99577 -0.81455 35014 ft 414 kts 210°
2026-05-07 08:29 43.94498 -0.85110 35021 ft 413 kts 209°
2026-05-07 08:30 43.89383 -0.88775 35018 ft 413 kts 209°
2026-05-07 08:30 43.84272 -0.92438 35021 ft 413 kts 209°
2026-05-07 08:31 43.79160 -0.96094 35018 ft 413 kts 209°
2026-05-07 08:31 43.74069 -0.99724 35012 ft 414 kts 209°
2026-05-07 08:32 43.68939 -1.03377 35022 ft 414 kts 209°
2026-05-07 08:32 43.63821 -1.07022 35022 ft 414 kts 209°
2026-05-07 08:33 43.58695 -1.10662 35002 ft 414 kts 209°
2026-05-07 08:33 43.54432 -1.13680 34999 ft 414 kts 209°
2026-05-07 08:34 43.49309 -1.17301 35001 ft 414 kts 209°
2026-05-07 08:34 43.43344 -1.21505 34999 ft 414 kts 209°
2026-05-07 08:35 43.39051 -1.24532 34991 ft 414 kts 208°
2026-05-07 08:35 43.33919 -1.28150 34988 ft 414 kts 208°
2026-05-07 08:36 43.28788 -1.31752 34992 ft 414 kts 208°
2026-05-07 08:36 43.23673 -1.35334 34992 ft 415 kts 208°
2026-05-07 08:37 43.18519 -1.38935 34988 ft 415 kts 208°
2026-05-07 08:37 43.13369 -1.42523 34991 ft 415 kts 208°
2026-05-07 08:38 43.08258 -1.46091 34991 ft 415 kts 208°
2026-05-07 08:38 43.03104 -1.49673 34993 ft 415 kts 208°
2026-05-07 08:39 42.97950 -1.53240 34994 ft 415 kts 208°
2026-05-07 08:39 42.92794 -1.56801 34998 ft 415 kts 208°
2026-05-07 08:40 42.87638 -1.60370 35010 ft 415 kts 208°
2026-05-07 08:40 42.82480 -1.63927 35011 ft 415 kts 208°
2026-05-07 08:41 42.77325 -1.67481 35010 ft 415 kts 208°
2026-05-07 08:41 42.72173 -1.71022 35008 ft 414 kts 208°
2026-05-07 08:42 42.67039 -1.74502 35006 ft 415 kts 207°
2026-05-07 08:42 42.61858 -1.77969 35004 ft 415 kts 207°
2026-05-07 08:43 42.56685 -1.81428 35003 ft 415 kts 207°
2026-05-07 08:43 42.51503 -1.84897 35006 ft 415 kts 207°
2026-05-07 08:44 42.46318 -1.88361 35012 ft 415 kts 207°
2026-05-07 08:44 42.41130 -1.91825 35031 ft 415 kts 207°
2026-05-07 08:45 42.35970 -1.95269 35020 ft 415 kts 207°
2026-05-07 08:45 42.30773 -1.98728 35011 ft 415 kts 207°
2026-05-07 08:46 42.25593 -2.02177 35006 ft 415 kts 207°
2026-05-07 08:46 42.20437 -2.05589 35006 ft 415 kts 207°
2026-05-07 08:47 42.15245 -2.09014 34995 ft 415 kts 207°
2026-05-07 08:47 42.10048 -2.12436 34996 ft 415 kts 207°
2026-05-07 08:48 42.04854 -2.15853 34983 ft 415 kts 207°
2026-05-07 08:48 41.99701 -2.19250 34985 ft 415 kts 207°
2026-05-07 08:49 41.94505 -2.22668 34974 ft 415 kts 207°
2026-05-07 08:49 41.89301 -2.26076 34982 ft 416 kts 207°
2026-05-07 08:50 41.84081 -2.29482 34987 ft 417 kts 206°
2026-05-07 08:50 41.78867 -2.32885 34999 ft 417 kts 206°
2026-05-07 08:51 41.73651 -2.36296 34992 ft 417 kts 206°
2026-05-07 08:51 41.68433 -2.39691 34996 ft 416 kts 206°
2026-05-07 08:52 41.63214 -2.43074 35002 ft 416 kts 206°
2026-05-07 08:52 41.58025 -2.46435 34997 ft 416 kts 206°
2026-05-07 08:53 41.52809 -2.49806 34989 ft 416 kts 206°
2026-05-07 08:53 41.47587 -2.53178 35000 ft 416 kts 206°
2026-05-07 08:54 41.42362 -2.56545 34998 ft 416 kts 206°
2026-05-07 08:54 41.37166 -2.59884 34991 ft 416 kts 206°
2026-05-07 08:55 41.31983 -2.63349 34978 ft 416 kts 212°
2026-05-07 08:55 41.27219 -2.67723 35019 ft 416 kts 214°
2026-05-07 08:56 41.22475 -2.72097 35013 ft 415 kts 214°
2026-05-07 08:56 41.17721 -2.76461 35016 ft 414 kts 214°
2026-05-07 08:57 41.13011 -2.80774 34999 ft 413 kts 214°
2026-05-07 08:57 41.08265 -2.85114 35005 ft 413 kts 214°
2026-05-07 08:58 41.03557 -2.89415 35000 ft 413 kts 214°
2026-05-07 08:58 40.98824 -2.93741 35002 ft 413 kts 214°
2026-05-07 08:59 40.80841 -3.10080 34997 ft 412 kts 214°
2026-05-07 08:59 40.61934 -3.27157 34985 ft 410 kts 214°
2026-05-07 09:00 40.43184 -3.43958 35006 ft 410 kts 214°
2026-05-07 09:00 40.24309 -3.60735 34990 ft 408 kts 214°
2026-05-07 09:01 40.05491 -3.77375 34958 ft 407 kts 213°
2026-05-07 09:01 39.95325 -3.83442 35023 ft 404 kts 196°
2026-05-07 09:01 39.84340 -3.87220 34904 ft 411 kts 196°
2026-05-07 09:02 39.62275 -3.94900 34929 ft 410 kts 197°
2026-05-07 09:02 39.40311 -4.02463 34934 ft 411 kts 197°
2026-05-07 09:03 39.18154 -4.10052 34943 ft 412 kts 197°
2026-05-07 09:03 38.95958 -4.17592 34935 ft 412 kts 197°
2026-05-07 09:04 38.73735 -4.25112 34935 ft 413 kts 197°
2026-05-07 09:04 38.51454 -4.32593 34871 ft 416 kts 198°
2026-05-07 09:05 38.40060 -4.36409 32263 ft 430 kts 197°
2026-05-07 09:05 38.28920 -4.40096 30618 ft 402 kts 196°
2026-05-07 09:05 38.18377 -4.43603 28730 ft 379 kts 196°
2026-05-07 09:05 38.08394 -4.46898 26777 ft 362 kts 196°
2026-05-07 09:06 37.99086 -4.49965 25354 ft 338 kts 196°
2026-05-07 09:06 37.90148 -4.52904 23826 ft 324 kts 196°
2026-05-07 09:06 37.81548 -4.55746 22352 ft 316 kts 196°
2026-05-07 09:06 37.73045 -4.58539 20863 ft 314 kts 196°
2026-05-07 09:07 37.64604 -4.61287 19339 ft 311 kts 196°
2026-05-07 09:07 37.56381 -4.63971 17822 ft 307 kts 196°
2026-05-07 09:07 37.48193 -4.66624 16393 ft 301 kts 196°
2026-05-07 09:07 37.40106 -4.69256 14966 ft 296 kts 195°
2026-05-07 09:08 37.32179 -4.71831 13556 ft 292 kts 195°
2026-05-07 09:08 37.24487 -4.74326 12255 ft 286 kts 195°
2026-05-07 09:08 37.16798 -4.76803 10799 ft 281 kts 195°
2026-05-07 09:08 37.09458 -4.79154 9907 ft 253 kts 195°
2026-05-07 09:09 37.02719 -4.78853 8730 ft 248 kts 167°
2026-05-07 09:09 36.96132 -4.76763 7407 ft 241 kts 167°
2026-05-07 09:09 36.89688 -4.74726 6096 ft 239 kts 167°
2026-05-07 09:09 36.84950 -4.73229 5124 ft 235 kts 167°
2026-05-07 09:10 36.83369 -4.72727 4826 ft 234 kts 168°
2026-05-07 09:10 36.81789 -4.72224 4508 ft 233 kts 167°
2026-05-07 09:10 36.80220 -4.71721 4191 ft 232 kts 167°
2026-05-07 09:10 36.78663 -4.71161 3791 ft 236 kts 156°
2026-05-07 09:11 36.77324 -4.69991 3455 ft 237 kts 134°
2026-05-07 09:11 36.76422 -4.68279 3143 ft 237 kts 119°
2026-05-07 09:11 36.75665 -4.66452 2827 ft 238 kts 118°
2026-05-07 09:11 36.74904 -4.64620 2501 ft 236 kts 118°
2026-05-07 09:12 36.74154 -4.62824 2207 ft 230 kts 118°
2026-05-07 09:12 36.73429 -4.61093 1881 ft 225 kts 118°
2026-05-07 09:12 36.72729 -4.59422 1598 ft 209 kts 118°
2026-05-07 09:12 36.72087 -4.57891 1325 ft 191 kts 117°
2026-05-07 09:13 36.71499 -4.56489 1083 ft 172 kts 117°
2026-05-07 09:13 36.70966 -4.55219 868 ft 157 kts 118°
2026-05-07 09:13 36.70480 -4.54060 654 ft 148 kts 117°
2026-05-07 09:13 36.70006 -4.52931 470 ft 146 kts 118°
2026-05-07 09:14 36.69537 -4.51819 292 ft 144 kts 119°
2026-05-07 09:14 36.69083 -4.50717 96 ft 142 kts 119°
2026-05-07 09:14 36.68658 -4.49718 48 ft 108 kts 117°
2026-05-07 09:14 36.68424 -4.49160 47 ft 31 kts 117°
2026-05-07 09:15 36.68333 -4.48997 43 ft 23 kts 135°
2026-05-07 09:15 36.68210 -4.48880 40 ft 18 kts 148°
2026-05-07 09:15 36.68144 -4.48902 40 ft 12 kts 266°
2026-05-07 09:15 36.68171 -4.48997 39 ft 12 kts 298°
2026-05-07 09:16 36.68213 -4.49099 40 ft 14 kts 297°
2026-05-07 09:16 36.68262 -4.49216 40 ft 16 kts 297°
2026-05-07 09:16 36.68252 -4.49348 40 ft 18 kts 229°
2026-05-07 09:16 36.68157 -4.49456 42 ft 19 kts 221°
2026-05-07 09:17 36.68064 -4.49558 42 ft 14 kts 216°
2026-05-07 09:17 36.67980 -4.49509 42 ft 15 kts 131°
2026-05-07 09:17 36.67932 -4.49440 42 ft 7 kts 131°
2026-05-07 09:17 36.67898 -4.49433 42 ft 5 kts 204°
2026-05-07 09:18 36.67874 -4.49451 42 ft 3 kts 213°
2026-05-07 09:18 36.67870 -4.49454 42 ft 0 kts 213°